Time,TemperatureF,DewpointF,PressureIn,WindDirection,WindDirectionDegrees,WindSpeedMPH,WindSpeedGustMPH,Humidity,HourlyPrecipIn,Conditions,Clouds,dailyrainin,SoftwareType,DateUTC
2013-03-27 00:02:00,51.0,26.0,30.33,SSE,150,6.0,-999.0,38,0.00,,,0.00,,2013-03-27 05:02:00,
2013-03-27 00:12:00,51.0,26.0,30.33,SSE,150,6.0,-999.0,38,0.00,,,0.00,,2013-03-27 05:12:00,
2013-03-27 00:23:00,51.0,28.0,30.33,South,171,4.0,-999.0,40,0.00,,,0.00,,2013-03-27 05:23:00,
2013-03-27 00:32:00,50.0,29.0,30.32,SSE,166,4.0,-999.0,44,0.00,,,0.00,,2013-03-27 05:32:00,
2013-03-27 00:42:00,50.0,29.0,30.32,SSE,166,4.0,-999.0,44,0.00,,,0.00,,2013-03-27 05:42:00,
2013-03-27 00:52:00,49.0,29.0,30.32,South,173,3.0,-999.0,46,0.00,,,0.00,,2013-03-27 05:52:00,
2013-03-27 01:02:00,49.0,30.0,30.32,South,182,4.0,-999.0,48,0.00,,,0.00,,2013-03-27 06:02:00,
2013-03-27 01:12:00,49.0,30.0,30.32,South,182,4.0,-999.0,48,0.00,,,0.00,,2013-03-27 06:12:00,
2013-03-27 01:22:00,48.0,30.0,30.32,South,184,3.0,-999.0,49,0.00,,,0.00,,2013-03-27 06:22:00,
2013-03-27 01:32:00,48.0,31.0,30.32,South,184,2.0,-999.0,51,0.00,,,0.00,,2013-03-27 06:32:00,
2013-03-27 01:42:00,48.0,31.0,30.32,South,184,2.0,-999.0,51,0.00,,,0.00,,2013-03-27 06:42:00,
2013-03-27 01:53:00,48.0,30.0,30.31,South,184,2.0,-999.0,50,0.00,,,0.00,,2013-03-27 06:53:00,
2013-03-27 02:02:00,47.0,29.0,30.31,South,184,2.0,-999.0,50,0.00,,,0.00,,2013-03-27 07:02:00,
2013-03-27 02:12:00,47.0,29.0,30.31,South,184,2.0,-999.0,50,0.00,,,0.00,,2013-03-27 07:12:00,
2013-03-27 02:22:00,47.0,30.0,30.30,South,185,4.0,-999.0,52,0.00,,,0.00,,2013-03-27 07:22:00,
2013-03-27 02:32:00,47.0,31.0,30.30,South,187,2.0,-999.0,53,0.00,,,0.00,,2013-03-27 07:32:00,
2013-03-27 02:42:00,47.0,31.0,30.30,South,187,2.0,-999.0,53,0.00,,,0.00,,2013-03-27 07:42:00,
2013-03-27 02:53:00,46.0,30.0,30.29,South,187,3.0,-999.0,54,0.00,,,0.00,,2013-03-27 07:53:00,
2013-03-27 03:02:00,46.0,31.0,30.29,South,187,1.0,-999.0,55,0.00,,,0.00,,2013-03-27 08:02:00,
2013-03-27 03:12:00,46.0,31.0,30.29,South,187,1.0,-999.0,55,0.00,,,0.00,,2013-03-27 08:12:00,
2013-03-27 03:22:00,46.0,31.0,30.29,South,187,1.0,-999.0,55,0.00,,,0.00,,2013-03-27 08:22:00,
2013-03-27 03:32:00,45.0,31.0,30.29,South,187,1.0,-999.0,57,0.00,,,0.00,,2013-03-27 08:32:00,
2013-03-27 03:43:00,45.0,31.0,30.29,South,187,1.0,-999.0,57,0.00,,,0.00,,2013-03-27 08:43:00,
2013-03-27 03:52:00,45.0,31.0,30.28,South,187,1.0,-999.0,57,0.00,,,0.00,,2013-03-27 08:52:00,
2013-03-27 04:01:00,43.0,30.0,30.28,NNE,24,1.0,-999.0,59,0.00,,,0.00,,2013-03-27 09:01:00,
2013-03-27 04:12:00,43.0,30.0,30.28,NNE,24,1.0,-999.0,59,0.00,,,0.00,,2013-03-27 09:12:00,
2013-03-27 04:22:00,43.0,30.0,30.28,NNE,24,0.0,-999.0,61,0.00,,,0.00,,2013-03-27 09:22:00,
2013-03-27 04:32:00,42.0,31.0,30.28,NNE,24,1.0,-999.0,64,0.00,,,0.00,,2013-03-27 09:32:00,
2013-03-27 04:42:00,42.0,31.0,30.28,NNE,24,1.0,-999.0,64,0.00,,,0.00,,2013-03-27 09:42:00,
2013-03-27 04:52:00,41.0,31.0,30.28,NNE,24,1.0,-999.0,66,0.00,,,0.00,,2013-03-27 09:52:00,
2013-03-27 05:02:00,40.0,30.0,30.27,NNE,24,2.0,-999.0,67,0.00,,,0.00,,2013-03-27 10:02:00,
2013-03-27 05:12:00,40.0,30.0,30.27,NNE,24,2.0,-999.0,67,0.00,,,0.00,,2013-03-27 10:12:00,
2013-03-27 05:22:00,38.0,29.0,30.27,NNE,24,1.0,-999.0,71,0.00,,,0.00,,2013-03-27 10:22:00,
2013-03-27 05:32:00,38.0,29.0,30.27,NNE,21,3.0,-999.0,71,0.00,,,0.00,,2013-03-27 10:32:00,
2013-03-27 05:42:00,38.0,29.0,30.27,NNE,21,3.0,-999.0,71,0.00,,,0.00,,2013-03-27 10:42:00,
2013-03-27 05:53:00,38.0,30.0,30.27,NNE,21,2.0,-999.0,72,0.00,,,0.00,,2013-03-27 10:53:00,
2013-03-27 06:02:00,37.0,29.0,30.27,NNE,21,1.0,-999.0,73,0.00,,,0.00,,2013-03-27 11:02:00,
2013-03-27 06:12:00,37.0,29.0,30.27,NNE,21,1.0,-999.0,73,0.00,,,0.00,,2013-03-27 11:12:00,
2013-03-27 06:22:00,38.0,30.0,30.27,NNE,21,2.0,-999.0,74,0.00,,,0.00,,2013-03-27 11:22:00,
2013-03-27 06:32:00,37.0,29.0,30.28,NNE,20,3.0,-999.0,73,0.00,,,0.00,,2013-03-27 11:32:00,
2013-03-27 06:42:00,37.0,29.0,30.28,NNE,20,3.0,-999.0,73,0.00,,,0.00,,2013-03-27 11:42:00,
2013-03-27 06:52:00,37.0,29.0,30.27,NNE,20,2.0,-999.0,74,0.00,,,0.00,,2013-03-27 11:52:00,
2013-03-27 07:02:00,38.0,30.0,30.27,NNE,20,2.0,-999.0,73,0.00,,,0.00,,2013-03-27 12:02:00,
2013-03-27 07:12:00,38.0,30.0,30.27,NNE,20,2.0,-999.0,73,0.00,,,0.00,,2013-03-27 12:12:00,
2013-03-27 07:22:00,38.0,30.0,30.28,NNE,20,3.0,-999.0,74,0.00,,,0.00,,2013-03-27 12:22:00,
2013-03-27 07:32:00,38.0,31.0,30.28,NNE,20,3.0,-999.0,75,0.00,,,0.00,,2013-03-27 12:32:00,
2013-03-27 07:43:00,38.0,31.0,30.28,NNE,20,3.0,-999.0,75,0.00,,,0.00,,2013-03-27 12:43:00,
2013-03-27 07:52:00,39.0,31.0,30.28,NNE,21,0.0,-999.0,74,0.00,,,0.00,,2013-03-27 12:52:00,
2013-03-27 08:02:00,40.0,31.0,30.29,NNE,20,1.0,-999.0,70,0.00,,,0.00,,2013-03-27 13:02:00,
2013-03-27 08:12:00,40.0,31.0,30.29,NNE,20,1.0,-999.0,70,0.00,,,0.00,,2013-03-27 13:12:00,
2013-03-27 08:22:00,40.0,31.0,30.29,NNE,21,1.0,-999.0,71,0.00,,,0.00,,2013-03-27 13:22:00,
2013-03-27 08:32:00,40.0,31.0,30.29,NNE,21,1.0,-999.0,71,0.00,,,0.00,,2013-03-27 13:32:00,
2013-03-27 08:42:00,40.0,31.0,30.29,NNE,21,1.0,-999.0,71,0.00,,,0.00,,2013-03-27 13:42:00,
2013-03-27 08:53:00,43.0,34.0,30.30,NNW,327,2.0,-999.0,70,0.00,,,0.00,,2013-03-27 13:53:00,
2013-03-27 09:02:00,45.0,35.0,30.30,NNW,329,2.0,-999.0,68,0.00,,,0.00,,2013-03-27 14:02:00,
2013-03-27 09:12:00,45.0,35.0,30.30,NNW,329,2.0,-999.0,68,0.00,,,0.00,,2013-03-27 14:12:00,
2013-03-27 09:22:00,46.0,36.0,30.31,NNW,333,0.0,-999.0,68,0.00,,,0.00,,2013-03-27 14:22:00,
2013-03-27 09:32:00,49.0,37.0,30.30,ESE,109,2.0,-999.0,64,0.00,,,0.00,,2013-03-27 14:32:00,
2013-03-27 09:42:00,49.0,37.0,30.30,ESE,109,2.0,-999.0,64,0.00,,,0.00,,2013-03-27 14:42:00,
2013-03-27 09:52:00,51.0,38.0,30.31,ESE,112,4.0,-999.0,61,0.00,,,0.00,,2013-03-27 14:52:00,
2013-03-27 10:02:00,54.0,40.0,30.31,ESE,123,4.0,-999.0,58,0.00,,,0.00,,2013-03-27 15:02:00,
2013-03-27 10:12:00,54.0,40.0,30.31,ESE,123,4.0,-999.0,58,0.00,,,0.00,,2013-03-27 15:12:00,
2013-03-27 10:22:00,57.0,41.0,30.31,SE,141,10.0,-999.0,55,0.00,,,0.00,,2013-03-27 15:22:00,
2013-03-27 10:33:00,57.0,41.0,30.31,SSE,153,8.0,-999.0,55,0.00,,,0.00,,2013-03-27 15:33:00,
2013-03-27 10:42:00,57.0,41.0,30.31,SSE,153,8.0,-999.0,55,0.00,,,0.00,,2013-03-27 15:42:00,
2013-03-27 10:52:00,59.0,42.0,30.32,SE,136,9.0,-999.0,53,0.00,,,0.00,,2013-03-27 15:52:00,
2013-03-27 11:02:00,60.0,43.0,30.31,SE,138,4.0,-999.0,53,0.00,,,0.00,,2013-03-27 16:02:00,
2013-03-27 11:12:00,60.0,43.0,30.31,SE,138,4.0,-999.0,53,0.00,,,0.00,,2013-03-27 16:12:00,
2013-03-27 11:22:00,61.0,43.0,30.31,SSE,157,10.0,-999.0,51,0.00,,,0.00,,2013-03-27 16:22:00,
2013-03-27 11:32:00,62.0,43.0,30.30,South,186,9.0,-999.0,49,0.00,,,0.00,,2013-03-27 16:32:00,
2013-03-27 11:42:00,62.0,43.0,30.30,South,186,9.0,-999.0,49,0.00,,,0.00,,2013-03-27 16:42:00,
2013-03-27 11:52:00,62.0,42.0,30.30,SE,132,10.0,-999.0,47,0.00,,,0.00,,2013-03-27 16:52:00,
2013-03-27 12:02:00,64.0,40.0,30.30,SSE,154,14.0,-999.0,42,0.00,,,0.00,,2013-03-27 17:02:00,
2013-03-27 12:12:00,64.0,40.0,30.30,SSE,154,14.0,-999.0,42,0.00,,,0.00,,2013-03-27 17:12:00,
2013-03-27 12:22:00,64.0,41.0,30.30,SE,138,9.0,-999.0,43,0.00,,,0.00,,2013-03-27 17:22:00,
2013-03-27 12:32:00,64.0,40.0,30.29,South,169,11.0,-999.0,42,0.00,,,0.00,,2013-03-27 17:32:00,
2013-03-27 12:44:00,64.0,40.0,30.29,South,169,11.0,-999.0,42,0.00,,,0.00,,2013-03-27 17:44:00,
2013-03-27 12:52:00,64.0,40.0,30.29,SSE,157,8.0,-999.0,42,0.00,,,0.00,,2013-03-27 17:52:00,
2013-03-27 13:02:00,64.0,41.0,30.29,SSW,198,10.0,-999.0,43,0.00,,,0.00,,2013-03-27 18:02:00,
2013-03-27 13:12:00,64.0,41.0,30.29,SSW,198,10.0,-999.0,43,0.00,,,0.00,,2013-03-27 18:12:00,
2013-03-27 13:22:00,64.0,42.0,30.28,South,178,14.0,-999.0,44,0.00,,,0.00,,2013-03-27 18:22:00,
2013-03-27 13:32:00,65.0,43.0,30.27,SSE,150,8.0,-999.0,45,0.00,,,0.00,,2013-03-27 18:32:00,
2013-03-27 13:42:00,65.0,43.0,30.27,SSE,150,8.0,-999.0,45,0.00,,,0.00,,2013-03-27 18:42:00,
2013-03-27 13:53:00,64.0,42.0,30.26,SE,125,10.0,-999.0,45,0.00,,,0.00,,2013-03-27 18:53:00,
2013-03-27 14:02:00,64.0,42.0,30.26,South,182,10.0,-999.0,45,0.00,,,0.00,,2013-03-27 19:02:00,
2013-03-27 14:12:00,64.0,42.0,30.26,South,182,10.0,-999.0,45,0.00,,,0.00,,2013-03-27 19:12:00,
2013-03-27 14:22:00,65.0,44.0,30.25,South,184,9.0,-999.0,47,0.00,,,0.00,,2013-03-27 19:22:00,
2013-03-27 14:32:00,66.0,44.0,30.24,SSE,151,8.0,-999.0,45,0.00,,,0.00,,2013-03-27 19:32:00,
2013-03-27 14:42:00,66.0,44.0,30.24,SSE,151,8.0,-999.0,45,0.00,,,0.00,,2013-03-27 19:42:00,
2013-03-27 14:52:00,66.0,43.0,30.24,SSW,194,11.0,-999.0,44,0.00,,,0.00,,2013-03-27 19:52:00,
2013-03-27 15:02:00,65.0,43.0,30.23,South,191,10.0,-999.0,45,0.00,,,0.00,,2013-03-27 20:02:00,
2013-03-27 15:12:00,65.0,43.0,30.23,South,191,10.0,-999.0,45,0.00,,,0.00,,2013-03-27 20:12:00,
2013-03-27 15:22:00,65.0,44.0,30.22,SE,130,10.0,-999.0,46,0.00,,,0.00,,2013-03-27 20:22:00,
2013-03-27 15:32:00,66.0,45.0,30.22,SE,140,10.0,-999.0,46,0.00,,,0.00,,2013-03-27 20:32:00,
2013-03-27 15:42:00,66.0,45.0,30.22,SE,140,10.0,-999.0,46,0.00,,,0.00,,2013-03-27 20:42:00,
2013-03-27 15:52:00,66.0,45.0,30.20,SSE,153,13.0,-999.0,47,0.00,,,0.00,,2013-03-27 20:52:00,
2013-03-27 16:02:00,66.0,46.0,30.19,SE,134,9.0,-999.0,48,0.00,,,0.00,,2013-03-27 21:02:00,
2013-03-27 16:12:00,66.0,46.0,30.19,SE,134,9.0,-999.0,48,0.00,,,0.00,,2013-03-27 21:12:00,
2013-03-27 16:22:00,67.0,46.0,30.19,SSE,150,10.0,-999.0,46,0.00,,,0.00,,2013-03-27 21:22:00,
2013-03-27 16:32:00,68.0,47.0,30.18,SSE,159,6.0,-999.0,47,0.00,,,0.00,,2013-03-27 21:32:00,
2013-03-27 16:43:00,68.0,47.0,30.18,SSE,159,6.0,-999.0,47,0.00,,,0.00,,2013-03-27 21:43:00,
2013-03-27 16:52:00,67.0,47.0,30.17,SE,130,6.0,-999.0,48,0.00,,,0.00,,2013-03-27 21:52:00,
2013-03-27 17:03:00,68.0,47.0,30.16,SE,133,10.0,-999.0,47,0.00,,,0.00,,2013-03-27 22:03:00,
2013-03-27 17:12:00,68.0,47.0,30.16,SE,133,10.0,-999.0,47,0.00,,,0.00,,2013-03-27 22:12:00,
2013-03-27 17:23:00,68.0,47.0,30.16,SE,138,18.0,-999.0,47,0.00,,,0.00,,2013-03-27 22:23:00,
2013-03-27 17:33:00,68.0,48.0,30.16,SE,141,13.0,-999.0,48,0.00,,,0.00,,2013-03-27 22:33:00,
2013-03-27 17:42:00,68.0,48.0,30.16,SE,141,13.0,-999.0,48,0.00,,,0.00,,2013-03-27 22:42:00,
2013-03-27 17:52:00,68.0,47.0,30.16,South,178,17.0,-999.0,47,0.00,,,0.00,,2013-03-27 22:52:00,
2013-03-27 18:02:00,67.0,47.0,30.15,SSE,165,5.0,-999.0,49,0.00,,,0.00,,2013-03-27 23:02:00,
2013-03-27 18:12:00,67.0,47.0,30.15,SSE,165,5.0,-999.0,49,0.00,,,0.00,,2013-03-27 23:12:00,
2013-03-27 18:22:00,67.0,48.0,30.15,SE,130,12.0,-999.0,50,0.00,,,0.00,,2013-03-27 23:22:00,
2013-03-27 18:32:00,67.0,48.0,30.16,SSE,150,13.0,-999.0,50,0.00,,,0.00,,2013-03-27 23:32:00,
2013-03-27 18:42:00,67.0,48.0,30.16,SSE,150,13.0,-999.0,50,0.00,,,0.00,,2013-03-27 23:42:00,
2013-03-27 18:52:00,67.0,48.0,30.16,SSE,162,6.0,-999.0,51,0.00,,,0.00,,2013-03-27 23:52:00,
2013-03-27 19:02:00,66.0,48.0,30.15,SSE,150,13.0,-999.0,52,0.00,,,0.00,,2013-03-28 00:02:00,
2013-03-27 19:12:00,66.0,48.0,30.15,SSE,150,13.0,-999.0,52,0.00,,,0.00,,2013-03-28 00:12:00,
2013-03-27 19:22:00,66.0,48.0,30.15,SSE,157,9.0,-999.0,52,0.00,,,0.00,,2013-03-28 00:22:00,
2013-03-27 19:32:00,65.0,47.0,30.15,SE,140,9.0,-999.0,53,0.00,,,0.00,,2013-03-28 00:32:00,
2013-03-27 19:42:00,65.0,47.0,30.15,SE,140,9.0,-999.0,53,0.00,,,0.00,,2013-03-28 00:42:00,
2013-03-27 19:52:00,65.0,47.0,30.16,SSE,154,13.0,-999.0,53,0.00,,,0.00,,2013-03-28 00:52:00,
2013-03-27 20:02:00,65.0,48.0,30.16,SSE,157,10.0,-999.0,54,0.00,,,0.00,,2013-03-28 01:02:00,
2013-03-27 20:12:00,65.0,48.0,30.16,SSE,157,10.0,-999.0,54,0.00,,,0.00,,2013-03-28 01:12:00,
2013-03-27 20:22:00,65.0,48.0,30.16,South,174,9.0,-999.0,55,0.00,,,0.00,,2013-03-28 01:22:00,
2013-03-27 20:32:00,64.0,47.0,30.16,SSE,168,6.0,-999.0,55,0.00,,,0.00,,2013-03-28 01:32:00,
2013-03-27 20:42:00,64.0,47.0,30.16,SSE,168,6.0,-999.0,55,0.00,,,0.00,,2013-03-28 01:42:00,
2013-03-27 20:53:00,64.0,47.0,30.16,SSE,156,5.0,-999.0,55,0.00,,,0.00,,2013-03-28 01:53:00,
2013-03-27 21:02:00,64.0,48.0,30.17,SE,145,6.0,-999.0,57,0.00,,,0.00,,2013-03-28 02:02:00,
2013-03-27 21:12:00,64.0,48.0,30.17,SE,145,6.0,-999.0,57,0.00,,,0.00,,2013-03-28 02:12:00,
2013-03-27 21:22:00,64.0,48.0,30.17,SE,139,9.0,-999.0,57,0.00,,,0.00,,2013-03-28 02:22:00,
2013-03-27 21:32:00,63.0,48.0,30.17,SSE,156,12.0,-999.0,59,0.00,,,0.00,,2013-03-28 02:32:00,
2013-03-27 21:42:00,63.0,48.0,30.17,SSE,156,12.0,-999.0,59,0.00,,,0.00,,2013-03-28 02:42:00,
2013-03-27 21:52:00,63.0,48.0,30.17,SSE,156,12.0,-999.0,59,0.00,,,0.00,,2013-03-28 02:52:00,
2013-03-27 22:02:00,63.0,49.0,30.19,SE,137,8.0,-999.0,61,0.00,,,0.00,,2013-03-28 03:02:00,
2013-03-27 22:12:00,63.0,49.0,30.19,SE,137,8.0,-999.0,61,0.00,,,0.00,,2013-03-28 03:12:00,
2013-03-27 22:22:00,62.0,49.0,30.19,ESE,123,12.0,-999.0,62,0.00,,,0.00,,2013-03-28 03:22:00,
2013-03-27 22:33:00,62.0,49.0,30.19,SE,144,10.0,-999.0,63,0.00,,,0.00,,2013-03-28 03:33:00,
2013-03-27 22:42:00,62.0,49.0,30.19,SE,144,10.0,-999.0,63,0.00,,,0.00,,2013-03-28 03:42:00,
2013-03-27 22:53:00,62.0,50.0,30.19,SSE,153,9.0,-999.0,64,0.00,,,0.00,,2013-03-28 03:53:00,
2013-03-27 23:02:00,62.0,50.0,30.18,SE,146,10.0,-999.0,65,0.00,,,0.00,,2013-03-28 04:02:00,
2013-03-27 23:12:00,62.0,50.0,30.18,SE,146,10.0,-999.0,65,0.00,,,0.00,,2013-03-28 04:12:00,
2013-03-27 23:22:00,62.0,51.0,30.19,South,171,11.0,-999.0,66,0.00,,,0.00,,2013-03-28 04:22:00,
2013-03-27 23:32:00,61.0,50.0,30.19,SSE,150,9.0,-999.0,67,0.00,,,0.00,,2013-03-28 04:32:00,
2013-03-27 23:42:00,61.0,50.0,30.19,SSE,150,9.0,-999.0,67,0.00,,,0.00,,2013-03-28 04:42:00,
2013-03-27 23:52:00,61.0,50.0,30.19,SE,141,8.0,-999.0,68,0.00,,,0.00,,2013-03-28 04:52:00,